This is the latest recevied weather packets stored in our database for station/object K0SDS. If no packets are shown the sender has not sent any weather packets the latest 10 day(s).
| Time | Temp. | Humidity | Pressure | Rain* | Wind** | Luminosity | Snow |
|---|---|---|---|---|---|---|---|
| 1778097104 | 16.11° C | 38% | 1018.5 hPa | 0 mm | - | 636 W/m² | - |
| 1778096801 | 16.67° C | 36% | 1018.4 hPa | 0 mm | - | 611 W/m² | - |
| 1778096497 | 16.11° C | 42% | 1018.5 hPa | 0 mm | - | 615 W/m² | - |
| 1778096195 | 15.56° C | 38% | 1018.8 hPa | 0 mm | - | 621 W/m² | - |
| 1778095892 | 16.11° C | 41% | 1018.6 hPa | 0 mm | - | 624 W/m² | - |
| 1778095589 | 16.11° C | 36% | 1018.6 hPa | 0 mm | - | 633 W/m² | - |
| 1778095285 | 16.11° C | 38% | 1018.4 hPa | 0 mm | - | 629 W/m² | - |
| 1778094982 | 15.56° C | 36% | 1018.7 hPa | 0 mm | - | 637 W/m² | - |
| 1778094678 | 15.56° C | 36% | 1018.7 hPa | 0 mm | - | 643 W/m² | - |
| 1778094376 | 15.56° C | 38% | 1018.6 hPa | 0 mm | - | 641 W/m² | - |
| 1778094072 | 15.56° C | 34% | 1018.6 hPa | 0 mm | - | 650 W/m² | - |
| 1778093769 | 15.56° C | 33% | 1018.4 hPa | 0 mm | - | 661 W/m² | - |
| 1778093465 | 15.56° C | 35% | 1018.7 hPa | 0 mm | - | 664 W/m² | - |
| 1778093163 | 15.56° C | 35% | 1018.8 hPa | 0 mm | - | 684 W/m² | - |
| 1778092860 | 16.11° C | 35% | 1018.6 hPa | 0 mm | - | 672 W/m² | - |
| 1778092556 | 16.11° C | 37% | 1018.7 hPa | 0 mm | - | 626 W/m² | - |
| 1778092253 | 15.56° C | 40% | 1018.7 hPa | 0 mm | - | 628 W/m² | - |
| 1778091950 | 15° C | 39% | 1018.8 hPa | 0 mm | - | 656 W/m² | - |
| 1778091647 | 15° C | 38% | 1019.3 hPa | 0 mm | - | 668 W/m² | - |
| 1778091345 | 15.56° C | 37% | 1019.1 hPa | 0 mm | - | 668 W/m² | - |
| 1778091041 | 15° C | 40% | 1019 hPa | 0 mm | - | 652 W/m² | - |
| 1778090737 | 15° C | 39% | 1019 hPa | 0 mm | - | 669 W/m² | - |
| 1778090429 | 15.56° C | 43% | 1019 hPa | 0 mm | - | 723 W/m² | - |
| 1778090126 | 15° C | 35% | 1019.2 hPa | 0 mm | - | 737 W/m² | - |
| 1778089822 | 14.44° C | 45% | 1019 hPa | 0 mm | - | 722 W/m² | - |
* Rain latest hour (hover to see other rain measurements)
** Current wind speed in m/s (hover to see current wind gust speed)